timestamp,wind_dir_avg,wind_spd_avg,wind_spd_max_dir,wind_spd_gust,battery_voltage,lat,long
2022-09-13 00:04:01+00:00,38.0,3.45,39.0,4.26,12.49,47.59359,-54.27349
2022-09-13 00:14:01+00:00,19.0,3.43,9.0,4.65,12.49,47.59359,-54.27349
2022-09-13 00:24:01+00:00,112.0,1.33,116.0,2.24,12.49,47.59359,-54.27349
2022-09-13 00:34:01+00:00,28.0,3.92,32.0,6.73,12.49,47.59359,-54.27349
2022-09-13 00:44:01+00:00,8.0,1.38,355.0,2.78,12.49,47.59359,-54.27349
2022-09-13 00:54:01+00:00,39.0,1.67,41.0,2.56,12.49,47.59359,-54.27349
2022-09-13 01:04:01+00:00,37.0,2.56,36.0,4.08,12.49,47.59359,-54.27349
2022-09-13 01:14:01+00:00,62.0,3.24,63.0,4.17,12.41,47.59359,-54.27349
2022-09-13 01:24:01+00:00,33.0,5.96,30.0,6.86,12.41,47.59359,-54.27349
2022-09-13 01:34:01+00:00,24.0,7.68,28.0,9.05,12.41,47.59359,-54.27349
2022-09-13 01:44:01+00:00,26.0,7.2,26.0,7.65,12.41,47.59359,-54.27349
2022-09-13 01:54:01+00:00,23.0,7.0,22.0,7.48,12.41,47.59359,-54.27349
2022-09-13 02:04:01+00:00,24.0,8.42,16.0,9.81,12.41,47.59359,-54.27349
2022-09-13 02:14:00+00:00,13.0,9.13,13.0,10.41,12.41,47.59359,-54.27349
2022-09-13 02:24:00+00:00,14.0,9.5,11.0,10.83,12.41,47.59359,-54.27349
2022-09-13 02:34:00+00:00,13.0,8.58,9.0,11.27,12.41,47.59359,-54.27349
2022-09-13 02:44:00+00:00,21.0,6.6,23.0,7.01,12.41,47.59359,-54.27349
2022-09-13 02:54:00+00:00,13.0,7.32,13.0,7.89,12.41,47.59359,-54.27349
2022-09-13 03:04:00+00:00,23.0,7.33,20.0,7.57,12.41,47.59359,-54.27349
2022-09-13 03:14:00+00:00,19.0,6.53,21.0,7.28,12.41,47.59359,-54.27349
2022-09-13 03:24:00+00:00,28.0,5.68,23.0,6.67,12.41,47.59359,-54.27349
2022-09-13 03:34:00+00:00,26.0,5.71,19.0,6.72,12.41,47.59359,-54.27349
2022-09-13 03:44:00+00:00,27.0,6.7,23.0,7.56,12.41,47.59359,-54.27349
2022-09-13 03:54:00+00:00,31.0,6.62,27.0,7.56,12.41,47.59359,-54.27349
2022-09-13 04:04:00+00:00,28.0,5.97,25.0,6.57,12.41,47.59359,-54.27349
2022-09-13 04:14:00+00:00,7.0,9.1,11.0,10.54,12.41,47.59359,-54.27349
2022-09-13 04:24:00+00:00,1.0,10.03,0.0,11.08,12.41,47.59359,-54.27349
2022-09-13 04:34:00+00:00,8.0,9.04,6.0,10.78,12.41,47.59359,-54.27349
2022-09-13 04:44:00+00:00,5.0,8.3,6.0,9.69,12.41,47.59359,-54.27349
2022-09-13 04:54:00+00:00,12.0,8.64,13.0,10.45,12.41,47.59359,-54.27349
2022-09-13 05:04:00+00:00,13.0,7.66,18.0,9.87,12.41,47.59359,-54.27349
2022-09-13 05:14:01+00:00,7.0,10.01,4.0,12.24,12.41,47.59359,-54.27349
2022-09-13 05:24:01+00:00,7.0,11.02,8.0,13.17,12.41,47.59359,-54.27349
2022-09-13 05:34:01+00:00,10.0,10.5,14.0,12.69,12.41,47.59359,-54.27349
2022-09-13 05:44:01+00:00,13.0,9.73,12.0,12.76,12.41,47.59359,-54.27349
2022-09-13 05:54:01+00:00,12.0,11.6,22.0,14.36,12.41,47.59359,-54.27349
2022-09-13 06:04:01+00:00,10.0,9.83,15.0,12.04,12.41,47.59359,-54.27349
2022-09-13 06:14:00+00:00,13.0,11.43,10.0,13.98,12.41,47.59359,-54.27349
2022-09-13 06:24:00+00:00,6.0,11.12,3.0,12.69,12.41,47.59359,-54.27349
2022-09-13 06:34:00+00:00,4.0,11.98,3.0,13.32,12.41,47.59359,-54.27349
2022-09-13 06:44:00+00:00,2.0,11.39,5.0,12.77,12.41,47.59359,-54.27349
2022-09-13 06:54:00+00:00,3.0,12.39,5.0,14.57,12.41,47.59359,-54.27349
2022-09-13 07:04:00+00:00,3.0,10.88,4.0,12.89,12.41,47.59359,-54.27349
2022-09-13 07:14:00+00:00,3.0,10.42,0.0,11.59,12.41,47.59359,-54.27349
2022-09-13 07:24:00+00:00,11.0,9.58,17.0,11.35,12.41,47.59359,-54.27349
2022-09-13 07:34:00+00:00,14.0,8.69,19.0,10.34,12.41,47.59359,-54.27349
2022-09-13 07:44:00+00:00,13.0,9.82,7.0,11.85,12.41,47.59359,-54.27349
2022-09-13 07:54:00+00:00,16.0,8.75,20.0,9.95,12.41,47.59359,-54.27349
2022-09-13 08:04:00+00:00,12.0,8.78,13.0,10.18,12.41,47.59359,-54.27349
2022-09-13 08:14:01+00:00,7.0,8.65,5.0,10.19,12.41,47.59359,-54.27349
2022-09-13 08:24:01+00:00,4.0,8.74,6.0,9.86,12.41,47.59359,-54.27349
2022-09-13 08:34:01+00:00,0.0,8.24,1.0,8.98,12.41,47.59359,-54.27349
2022-09-13 08:44:01+00:00,3.0,9.61,3.0,11.75,12.41,47.59359,-54.27349
2022-09-13 08:54:01+00:00,359.0,9.46,359.0,10.2,12.41,47.59359,-54.27349
2022-09-13 09:04:01+00:00,3.0,8.07,0.0,9.61,12.41,47.59359,-54.27349
2022-09-13 09:14:00+00:00,359.0,8.64,4.0,9.99,12.33,47.59359,-54.27349
2022-09-13 09:24:00+00:00,0.0,8.56,359.0,9.26,12.33,47.59359,-54.27349
2022-09-13 09:34:00+00:00,356.0,8.14,353.0,9.34,12.33,47.59359,-54.27349
2022-09-13 09:44:00+00:00,358.0,8.23,358.0,8.86,12.33,47.59359,-54.27349
2022-09-13 09:54:00+00:00,3.0,8.42,6.0,9.43,12.33,47.59359,-54.27349
2022-09-13 10:04:00+00:00,4.0,6.74,359.0,7.73,12.33,47.59359,-54.27349
2022-09-13 10:14:00+00:00,4.0,7.91,6.0,9.14,12.33,47.59359,-54.27349
2022-09-13 10:24:00+00:00,4.0,8.96,4.0,10.13,12.33,47.59359,-54.27349
2022-09-13 10:34:00+00:00,2.0,10.11,3.0,11.9,12.33,47.59359,-54.27349
2022-09-13 10:44:00+00:00,7.0,8.51,6.0,10.25,12.33,47.59359,-54.27349
2022-09-13 10:54:00+00:00,11.0,8.54,12.0,10.53,12.33,47.59359,-54.27349
2022-09-13 11:04:00+00:00,11.0,8.53,10.0,10.77,12.33,47.59359,-54.27349
2022-09-13 11:14:00+00:00,15.0,5.07,5.0,6.73,13.6,47.59359,-54.27349
2022-09-13 11:24:00+00:00,14.0,7.63,14.0,9.31,13.6,47.59359,-54.27349
2022-09-13 11:34:00+00:00,357.0,8.42,356.0,10.27,13.6,47.59359,-54.27349
2022-09-13 11:44:00+00:00,0.0,9.25,358.0,10.31,13.6,47.59359,-54.27349
2022-09-13 11:54:00+00:00,3.0,8.41,4.0,9.43,13.6,47.59359,-54.27349
2022-09-13 12:04:00+00:00,5.0,8.88,12.0,10.69,13.6,47.59359,-54.27349
2022-09-13 12:14:00+00:00,3.0,8.74,4.0,10.55,14.32,47.59359,-54.27349
2022-09-13 12:24:00+00:00,2.0,10.87,359.0,12.8,14.32,47.59359,-54.27349
2022-09-13 12:34:00+00:00,4.0,9.19,9.0,10.49,14.32,47.59359,-54.27349
2022-09-13 12:44:00+00:00,2.0,9.25,1.0,10.28,14.32,47.59359,-54.27349
2022-09-13 12:54:00+00:00,0.0,9.17,359.0,10.1,14.32,47.59359,-54.27349
2022-09-13 13:04:00+00:00,358.0,9.94,357.0,11.08,14.32,47.59359,-54.27349
2022-09-13 13:14:00+00:00,0.0,11.81,2.0,13.2,13.84,47.59359,-54.27349
2022-09-13 13:24:00+00:00,2.0,11.03,1.0,12.72,13.84,47.59359,-54.27349
2022-09-13 13:34:00+00:00,4.0,10.81,7.0,12.47,13.84,47.59359,-54.27349
2022-09-13 13:44:00+00:00,9.0,9.08,14.0,10.82,13.84,47.59359,-54.27349
2022-09-13 13:54:00+00:00,14.0,8.69,15.0,9.54,13.84,47.59359,-54.27349
2022-09-13 14:04:00+00:00,12.0,8.59,7.0,10.45,13.84,47.59359,-54.27349
2022-09-13 14:14:00+00:00,9.0,8.64,4.0,10.84,13.84,47.59359,-54.27349
2022-09-13 14:24:00+00:00,11.0,9.2,18.0,12.21,13.84,47.59359,-54.27349
2022-09-13 14:34:00+00:00,18.0,9.02,18.0,9.83,13.84,47.59359,-54.27349
2022-09-13 14:44:00+00:00,14.0,7.74,11.0,8.85,13.84,47.59359,-54.27349
2022-09-13 14:54:00+00:00,21.0,8.64,19.0,9.61,13.84,47.59359,-54.27349
2022-09-13 15:04:00+00:00,19.0,8.52,19.0,9.49,13.84,47.59359,-54.27349
2022-09-13 15:14:01+00:00,19.0,7.91,21.0,8.69,13.92,47.59359,-54.27349
2022-09-13 15:24:01+00:00,11.0,8.41,11.0,9.65,13.92,47.59359,-54.27349
2022-09-13 15:34:01+00:00,18.0,7.34,17.0,8.3,13.92,47.59359,-54.27349
2022-09-13 15:44:01+00:00,12.0,7.13,8.0,7.71,13.92,47.59359,-54.27349
2022-09-13 15:54:01+00:00,20.0,7.76,19.0,8.6,13.92,47.59359,-54.27349
2022-09-13 16:04:01+00:00,12.0,7.69,6.0,8.77,13.92,47.59359,-54.27349
2022-09-13 16:14:01+00:00,19.0,7.49,20.0,8.76,13.76,47.59359,-54.27349
2022-09-13 16:24:01+00:00,20.0,7.64,18.0,8.61,13.76,47.59359,-54.27349
2022-09-13 16:34:01+00:00,18.0,7.71,18.0,9.12,13.76,47.59359,-54.27349
2022-09-13 16:44:01+00:00,22.0,8.97,22.0,9.83,13.76,47.59359,-54.27349
2022-09-13 16:54:01+00:00,19.0,8.57,19.0,9.44,13.76,47.59359,-54.27349
2022-09-13 17:04:01+00:00,13.0,8.58,8.0,9.79,13.76,47.59359,-54.27349
2022-09-13 17:14:00+00:00,22.0,9.8,23.0,10.62,14.4,47.59359,-54.27349
2022-09-13 17:24:00+00:00,13.0,9.29,9.0,10.58,14.4,47.59359,-54.27349
2022-09-13 17:34:00+00:00,14.0,10.11,15.0,10.96,14.4,47.59359,-54.27349
2022-09-13 17:44:00+00:00,19.0,8.38,21.0,9.29,14.4,47.59359,-54.27349
2022-09-13 17:54:00+00:00,17.0,7.51,19.0,8.96,14.4,47.59359,-54.27349
2022-09-13 18:04:00+00:00,19.0,8.66,15.0,9.94,14.4,47.59359,-54.27349
2022-09-13 18:14:01+00:00,15.0,8.51,18.0,9.09,13.6,47.59359,-54.27349
2022-09-13 18:24:01+00:00,12.0,8.36,9.0,9.59,13.6,47.59359,-54.27349
2022-09-13 18:34:01+00:00,359.0,7.71,5.0,9.17,13.6,47.59359,-54.27349
2022-09-13 18:44:01+00:00,16.0,8.48,20.0,9.49,13.6,47.59359,-54.27349
2022-09-13 18:54:01+00:00,10.0,6.3,16.0,7.44,13.6,47.59359,-54.27349
2022-09-13 19:04:01+00:00,12.0,6.39,13.0,7.14,13.6,47.59359,-54.27349
2022-09-13 19:14:00+00:00,22.0,7.0,22.0,7.88,13.84,47.59359,-54.27349
2022-09-13 19:24:00+00:00,4.0,5.86,2.0,7.08,13.84,47.59359,-54.27349
2022-09-13 19:34:00+00:00,13.0,6.55,14.0,7.74,13.84,47.59359,-54.27349
2022-09-13 19:44:00+00:00,9.0,7.01,13.0,8.28,13.84,47.59359,-54.27349
2022-09-13 19:54:00+00:00,18.0,7.22,13.0,8.0,13.84,47.59359,-54.27349
2022-09-13 20:04:00+00:00,26.0,7.75,28.0,8.18,13.84,47.59359,-54.27349
2022-09-13 20:14:01+00:00,25.0,7.73,26.0,7.91,13.68,47.59359,-54.27349
2022-09-13 20:24:01+00:00,25.0,6.38,28.0,6.75,13.68,47.59359,-54.27349
2022-09-13 20:34:01+00:00,24.0,7.1,29.0,7.95,13.68,47.59359,-54.27349
2022-09-13 20:44:01+00:00,25.0,6.45,29.0,6.92,13.68,47.59359,-54.27349
2022-09-13 20:54:01+00:00,18.0,6.05,17.0,6.82,13.68,47.59359,-54.27349
2022-09-13 21:04:01+00:00,17.0,6.53,18.0,7.27,13.68,47.59359,-54.27349
2022-09-13 21:14:00+00:00,20.0,7.2,22.0,7.92,13.37,47.59359,-54.27349
2022-09-13 21:24:00+00:00,21.0,6.27,21.0,6.66,13.37,47.59359,-54.27349
2022-09-13 21:34:00+00:00,10.0,5.25,7.0,6.65,13.37,47.59359,-54.27349
2022-09-13 21:44:00+00:00,5.0,4.61,4.0,5.26,13.37,47.59359,-54.27349
2022-09-13 21:54:00+00:00,358.0,5.62,358.0,6.06,13.37,47.59359,-54.27349
2022-09-13 22:04:00+00:00,4.0,4.21,2.0,5.13,13.37,47.59359,-54.27349
2022-09-13 22:14:01+00:00,1.0,6.3,1.0,7.85,12.73,47.59359,-54.27349
2022-09-13 22:24:01+00:00,5.0,6.15,7.0,7.67,12.73,47.59359,-54.27349
2022-09-13 22:34:01+00:00,5.0,6.54,3.0,7.89,12.73,47.59359,-54.27349
2022-09-13 22:44:01+00:00,1.0,5.89,359.0,6.34,12.73,47.59359,-54.27349
2022-09-13 22:54:01+00:00,3.0,5.99,1.0,7.35,12.73,47.59359,-54.27349
2022-09-13 23:04:01+00:00,359.0,5.95,359.0,6.62,12.73,47.59359,-54.27349
2022-09-13 23:14:00+00:00,2.0,5.37,7.0,6.29,12.49,47.59359,-54.27349
2022-09-13 23:24:00+00:00,5.0,5.03,4.0,5.47,12.49,47.59359,-54.27349
2022-09-13 23:34:00+00:00,17.0,6.39,16.0,6.86,12.49,47.59359,-54.27349
2022-09-13 23:44:00+00:00,17.0,6.55,16.0,7.15,12.49,47.59359,-54.27349
2022-09-13 23:54:00+00:00,5.0,5.72,6.0,6.45,12.49,47.59359,-54.27349
